Current Version              Previous Version:    01  02  03  04  05  06  07  08  09  10  11  12  13  14  15  16  17  18  19  20  21  22  23  24  25  26  27  28  29  30  
   31  32  33  34  35  36  37  38  39  40  41  42  43  44  45  46  47  48  49  50  51  52  53  54  55  56  57  58  59  60  

[Printable]
544
ASUS44 KEWX 162202
RWRTX
SOUTH TEXAS REGIONAL WEATHER ROUNDUP
NATIONAL WEATHER SERVICE AUSTIN/SAN ANTONIO TX
500 PM CDT WED APR 16 2014

NOTE: "FAIR" INDICATED FEW OR NO CLOUDS BELOW 12,000 FEET WITH NO
SIGNIFICANT WEATHER AND/OR OBSTRUCTIONS TO VISIBILITY.

* - THESE STATIONS ARE NOT NWS OR FAA STATIONS...AND ARE NOT SUBJECT
    TO NWS AND FAA QUALITY CONTROL.

TXZ171-172-183>190-162300-
TEXAS HILL COUNTRY AND EDWARDS PLATEAU

CITY           SKY/WX    TMP DP  RH WIND       PRES   REMARKS
JUNCTION       MOSUNNY   72  31  22 S17G25    29.88F
*LLANO         SUNNY     75  36  23 S10G18    29.95F
BURNET         SUNNY     70  40  33 S14G22    29.95F
*HORSESHOE BAY SUNNY     73  37  26 S14G24    29.93F
*KERRVILLE     MOSUNNY   69  33  26 SE18G29   29.94F
*FREDERICKSBRG SUNNY     69  36  30 S16G24    29.93F
*ROCKSPRINGS   MOSUNNY   70  32  24 SE16G23   29.92F
*BOERNE STAGE  PTSUNNY   70  34  26 S12G24    29.95F
*CASTROVILLE   PTSUNNY   74  38  26 S10G16    29.95F
HONDO          MOSUNNY   76  41  28 SE18G26   29.94F
*UVALDE        MOSUNNY   73  39  29 SE9G22    29.92F
DEL RIO        PTSUNNY   76  35  22 SE21G29   29.84F
LAUGHLIN AFB   PTSUNNY   75  35  23 S23       29.85F
CARRIZO SPRGS    N/A     73  41  31 S13       29.90F
$$

TXZ173-191>194-202-209-217>225-228-162300-
CENTRAL AND SOUTH CENTRAL TEXAS

CITY           SKY/WX    TMP DP  RH WIND       PRES   REMARKS
GEORGETOWN     SUNNY     72  43  35 SE14G21   29.96S
AUSTIN/BERGSTM MOSUNNY   72  47  40 SE17G28   29.94F
AUSTIN/MABRY   SUNNY     72  44  36 MISG      29.96F
*AUSTIN/EXEC   MOSUNNY   72  46  40 S10G17    29.96F
*LAGO VISTA    SUNNY     71  40  31 SE7G21    29.96F
SAN MARCOS     SUNNY     72  45  37 S15G21    29.96F
NEW BRAUNFELS  PTSUNNY   73  43  33 S18G26    29.93F
RANDOLPH AFB   PTSUNNY   74  41  30 S15G24    29.93F
PT SAN ANTONIO PTSUNNY   75  41  29 S13G23    29.92F
SAN ANTONIO    PTSUNNY   75  41  29 S15       29.93F
STINSON FIELD  MOSUNNY   76  43  30 S13G25    29.91F
*PLEASANTON    HVY RAIN  76  44  31 SE13G20   29.94F
*LA GRANGE     MOSUNNY   71  50  48 SE10G20   29.97F
*GIDDINGS      MOSUNNY   68  47  46 SE12G21   30.02F
*GONZALES      MOSUNNY   72  51  47 SE16G22   29.96F
$$

TXZ163>164-176>182-195>201-210>213-226-227-235-162300-
SOUTHEAST TEXAS

CITY           SKY/WX    TMP DP  RH WIND       PRES   REMARKS
COLLEGE STN    SUNNY     67  45  45 S14G24    30.00F
*BRYAN         MOSUNNY   67  47  48 SE15      30.00F
*CALDWELL      MOSUNNY   66  45  45 S16G22    30.03F
*CROCKETT      SUNNY     66  43  42 S6G16     30.07F
*BRENHAM       SUNNY     67  46  46 SE12G18   30.02F
HUNTSVILLE     SUNNY     66  37  34 VRB7      30.03F
CONROE         SUNNY     66  44  45 S13       30.04F
HOUSTON BUSH   MOSUNNY   65  47  52 SE13G23   30.04F
HOUSTON HOBBY  PTSUNNY   65  47  52 SE9       30.04F
*HOUSTON SW AP MOSUNNY   67  48  49 S12G17    30.05F
PEARLAND       MOSUNNY   66  47  50 S13       30.06F
HOUSTON HOOKS  SUNNY     67  47  48 SE12G17   30.03F
ELLINGTON FLD  NOT AVBL
SUGAR LAND     PTSUNNY   67  49  52 SE10      30.03F
*HOUSTON EXEC  MOSUNNY   66  48  52 SE14      30.03F
*CLEVELAND MUN MOSUNNY   66  48  53 SE5       30.05F
*WHARTON       MOSUNNY   66  49  54 SE14      30.03F
$$

TXZ214>216-236>238-162300-
THE UPPER TEXAS COAST

CITY           SKY/WX    TMP DP  RH WIND       PRES   REMARKS
*ORANGE        MOSUNNY   64  46  51 S7        30.10F
PORT ARTHUR    PTSUNNY   62  46  55 S10G21    30.07F
GALVESTON      CLOUDY    64  51  62 SE13      30.06F
ANGLETON       PTSUNNY   66  50  56 E12G21    30.03F
*BAY CITY      CLOUDY    68  52  56 SE13      30.03F
PALACIOS       LGT RAIN  68  49  50 SE14      30.02F
$$

TXZ229>234-239>247-162300-
TEXAS COASTAL BEND AND RIO GRANDE PLAINS

CITY           SKY/WX    TMP DP  RH WIND       PRES   REMARKS
VICTORIA       CLOUDY    70  50  49 SE20      29.99F
*BEEVILLE      SUNNY     74  45  35 S17G24    29.96F
ROCKPORT       PTSUNNY   70  51  51 SE15      30.00F
*PORT ARANSAS  PTSUNNY   68  51  54 SE14      30.00F
*PORT LAVACA   PTSUNNY   67  51  57 E18       30.01F
*INGLESIDE     PTSUNNY   72  50  45 SE17      29.99F
CORPUS CHRISTI CLOUDY    70  51  51 SE17G23   29.98F
CORPUS NAS     CLOUDY    68  52  56 SE18      29.98F
*ROBSTOWN      PTSUNNY   72  50  46 SE18G26   29.97F
ALICE          PTSUNNY   72  52  49 SE16G26   29.94F
KINGSVILLE NAS CLOUDY    72  54  53 SE20G28   29.96F
COTULLA        MOSUNNY   75  41  29 S15       29.91F
*FAITH RANCH   MOSUNNY   75  41  29 S14G21    29.90F
LAREDO         MOSUNNY   78  45  31 SE15G24   29.92F
$$

TXZ248>255-162300-
DEEP SOUTH TEXAS

CITY           SKY/WX    TMP DP  RH WIND       PRES   REMARKS
BROWNSVILLE    PTSUNNY   72  54  53 SE15      29.94F
PORT ISABEL    PTSUNNY   73  54  51 SE17      29.95F
*SOUTH PADRE   PTSUNNY   73  59  60 MISG      29.95F
HARLINGEN      PTSUNNY   76  53  44 SE16G24   29.93F
*HEBBRONVILLE  PTSUNNY   75  44  33 SE10G23   29.92F
MCALLEN        PTSUNNY   75  52  44 S17G24    29.92F
*WESLACO       PTSUNNY   77  49  37 S15       29.92F
FALFURRIAS     PTSUNNY   76  54  45 E15G21    29.93F
EDINBURG       PTSUNNY   78  49  35 SE13G20   29.93F
*ZAPATA        PTSUNNY   76  45  33 SE14G22   29.90F
$$

TXZ213>215-236>238-242>244-246-247-251-254-255-162300-
CMAN STATIONS

STATION/POSITION TIME  TEMP    WIND        PRES    WAVE
                       AIR SEA DIR/SP/G            HT/PER
                 (UTC) (F)     (DEG/KT/KT) (MB)    (FT/S)
SABINE PASS      2100   60 66  130/ 12/ 14 1018.4
SEA RIM ST PARK  2100   62     130/  9/ 10 1019.4
NORTH JETTY/GLS  2100   62 67  140/ 12/ 14   N/A
EAGLE POINT      2100   61 58  150/ 11/ 13 1017.9
MORGANS POINT    2100   62 63  120/ 12/ 15 1019.3
PORT O`CONNOR    2100          110/ 13/ 15   N/A
PORT ARANSAS     2100   65 66  120/ 14/ 15 1016.5
MALAQUITE BEACH  2100   65 67  110/ 14/ 16 1015.0
BAFFIN BAY       2100   66 68  130/ 13/ 17 1015.2
PORT ISABEL      2100   69 66  140/ 10/ 17 1014.9
$$

GMZ080-GMZ150>470-162300-
OFFSHORE BUOY REPORTS

STATION/POSITION TIME  TEMP    WIND        PRES    WAVE
                       AIR SEA DIR/SP/G            HT/PER
                 (UTC) (F)     (DEG/KT/KT) (MB)    (FT/S)
20 E GALVESTON   2200   62 67  120/ 14/ 16 1017.5    2/ 5
35 NE PT MANSFLD 2200   66 69  120/ 16/ 17 1015.0    3/ 6
$$